www.pogodaiklimat.ru

Погода и климат >> Архив погоды >> Антарктида >> Esperanza Base


ПОГОДА в Esperanza Base

  • Прогноз погоды в Esperanza Base
  • Монитор погоды в Esperanza Base
  • Климат города

АРХИВ ПОГОДЫ в Esperanza Base

Время (UTC), дата Ветер
(напр.,м/с)
 
Видим.   Явления Облачность Т
(С)
Тd
(С)
f
(%)
Тe
(С)
Тes
(С)
Комфортность P
(гПа)
Po
(гПа)
Тmin
(С)
Tmax
(С)
R
(мм)
R24
(мм)
S
(см)
18 12.07 Ю 13 5000 м позёмок {метель} 10/10 210 м
[St]
-19.4 -23.4 70 -34 -34 опасность
обморожения
989.6 986.4
21 12.07 ЮЗ 12 10 км ледяные иглы {снег, метель} 6/6 210 м
[St]
-19.0 -27.2 48 -33 -33 опасность
обморожения
990.6 987.4
00 13.07 Ю 7 10 км в посл. час снег 3/3 300 м
[St]
-19.4 -26.6 53 -31 -31 опасность
обморожения
991.0 987.8 -21.3 -17.4 0.0
03 13.07 ЮЗ 2 2000 м снежные зёрна 9/9 180 м
[St]
-19.9 -24.0 70 -25 -25 988.8 985.6
06 13.07 ЮЗ 6 10 км в посл. час снег 9/9 240 м
[St]
-13.9 -18.0 71 -23 -23 983.9 980.8 0.2
09 13.07 Ю 8 10 км 10/10 270 м
[St]
-12.8 -17.9 66 -23 -23 982.7 979.6
12 13.07 Ю 12 3000 м позёмок {метель} 9/8 210 м
[St Ac lent]
-19.4 -23.4 70 -34 -34 опасность
обморожения
986.1 982.9 -20.2 -12.6 0.2
15 13.07 Ю 12 5000 м позёмок {метель} 5/3 210 м
[St Ac lent]
-19.0 -23.8 66 -33 -33 опасность
обморожения
987.8 984.6
18 13.07 Ю 18 4000 м позёмок {метель} 5/3 210 м
[St Ac lent]
-17.9 -19.9 84 -34 -34 опасность
обморожения
988.8 985.6
21 13.07 ЮЗ 13 4000 м позёмок {метель} 3/3 210 м
[St]
-18.0 -23.5 62 -32 -32 опасность
обморожения
991.6 988.4
00 14.07 Ю 17 10 км ледяные иглы {снег, метель} 3/3 300 м
[St]
-18.2 -22.8 67 -29 -29 993.7 990.5 -19.5 -17.3 0.0
03 14.07 Ю 23 10 км в посл. час снег 3/3 450 м
[St]
-18.1 -23.6 62 -36 -36 опасность
обморожения
992.7 989.4
06 14.07 Ю 24 10 км {снег} 6/6 300 м
[St]
-18.4 -23.0 67 -36 -36 опасность
обморожения
991.7 988.5 0.9
09 14.07 Ю 20 10 км 3/3 450 м
[St]
-17.8 -22.3 68 -34 -34 опасность
обморожения
993.5 990.2
12 14.07 Ю 13 10 км 3/3 300 м
[St Ac lent]
-18.6 -24.3 61 -33 -33 опасность
обморожения
996.6 993.4 -19.2 -17.7 0.0
15 14.07 ЮВ 2 20 км 1/0
[Ac lent]
-15.6 -20.2 68 -21 -21 996.7 993.4
18 14.07 Ю 2 20 км 3/3 450 м
[St]
-16.2 -20.2 71 -20 -20 996.6 993.4
21 14.07 Ю 3 10 км 3/3 300 м
[St]
-17.1 -19.8 79 -24 -24 997.3 994.1
00 15.07 Ю 2 10 км ясно -18.6 -22.4 72 -24 -24 997.5 994.2 -19.8 -14.2
03 15.07 Ю 2 10 км ясно -18.6 -22.4 72 -23 -23 997.4 994.2
06 15.07 ЮВ 3 10 км ясно -18.2 -23.7 62 -26 -26 997.0 993.8
09 15.07 Ю 3 10 км ясно -16.2 -22.8 57 -22 -22 995.6 992.4
12 15.07 Ю 2 10 км 6/5 540 м
[St Cs]
-13.8 -17.9 71 -18 -18 995.5 992.2 -20.5 -12.6
15 15.07 Ю 2 10 км 8/8 270 м
[St]
-13.2 -16.5 76 -18 -18 995.9 992.6
18 15.07 ЮЗ 3 600 м туман 10/10 150 м
[St]
-12.8 -15.4 81 -18 -18 995.9 992.6
21 15.07 ЮЗ 3 600 м туман 10/10 150 м
[St]
-13.4 -16.7 76 -19 -19 996.0 992.8
00 16.07 Ю 2 <100 м туман [диам. изморози 30 мм] ?/? -13.4 -15.0 88 -18 -18 995.5 992.4 -14.2 -12.0
03 16.07 нст 2 500 м туман [диам. изморози 35 мм] 5/5 90 м
[St]
-14.0 -16.2 83 -18 -18 995.1 992.0
06 16.07 Ю 3 1200 м в посл. час туман 10/10 210 м
[St]
-11.3 -14.2 79 -17 -17 994.3 991.2
09 16.07 Ю 2 2000 м дымка [диам. изморози 10 мм] 6/6 210 м
[St]
-9.8 -11.9 85 -14 -14 994.7 991.6
12 16.07 ЮВ 2 10 км 4/4 450 м
[Sc Ac lent]
-7.6 -12.5 68 -11 -11 996.8 993.7 -15.4 -7.6
15 16.07 ЮЗ 10 10 км 1/1 900 м
[Sc Ac lent]
-1.1 -4.0 81 -9 -9 998.2 995.0
18 16.07 С 3 10 км 1/1 900 м
[Sc]
-3.9 -5.4 89 -9 -9 1000.2 997.0
21 16.07 З 1 10 км ясно -7.1 -11.3 72 -9 -9 1002.2 999.0
00 17.07 ЮВ 2 10 км ясно -8.3 -11.0 81 -13 -13 1003.1 1000.0 -8.6 +0.3
03 17.07 ЮВ 2 <100 м туман ?/? -9.0 -10.1 92 -14 -14 1004.0 1000.9
06 17.07 Ю 3 10 км в посл. час туман [диам. изморози 0.5 мм] ясно -7.6 -9.8 84 -13 -13 1004.9 1001.8
09 17.07 штиль 0 10 км ясно -8.9 -11.8 79 -9 -9 1005.2 1002.1
12 17.07 Ю 1 10 км 1/0
[Cs]
-9.0 -11.4 83 -11 -11 1005.8 1002.6 -10.5 -7.5
15 17.07 Ю 1 10 км 1/1 360 м
[St]
-7.3 -8.6 90 -10 -10 1006.5 1003.4
18 17.07 ЮЗ 3 10 км 4/1 450 м
[St Ci]
-7.1 -9.2 85 -12 -12 1006.6 1003.4
21 17.07 Ю 3 10 км 3/0
[Ci]
-8.8 -10.3 89 -14 -14 1007.2 1004.1
00 18.07 штиль 0 10 км ясно -8.0 -11.6 75 -9 -9 1008.3 1005.2 -9.5 -5.5
03 18.07 В 2 10 км ясно -6.7 -8.7 86 -11 -11 1009.5 1006.4
06 18.07 штиль 0 10 км ясно -5.2 -7.7 83 -6 -6 1009.5 1006.4
09 18.07 В 2 10 км ясно -4.6 -6.6 86 -9 -9 1009.2 1006.1
12 18.07 Ю 3 10 км 6/4 900 м
[Sc Ac trans]
-6.3 -8.6 84 -12 -12 1009.2 1006.1 -10.4 -2.0
15 18.07 ЮВ 4 10 км 9/1 450 м
[St Ac As Cs]
-5.6 -6.7 92 -12 -12 1008.4 1005.3
18 18.07 ЮЗ 6 10 км 9/3 450 м
[St Ac As Cs]
+9.2 -8.4 28 +6 +6 1006.4 1003.4
21 18.07 ЮЗ 15 10 км 9/3 450 м
[St Ac As Cs]
+4.8 -10.2 33 -2 -2 1003.8 1000.8
00 19.07 ЮЗ 15 10 км 9/3 300 м
[St Ac As Cs]
+6.4 -8.6 33 0 0 1003.9 1000.9 -6.3 +9.4
03 19.07 ЮЗ 7 10 км 5/0
[Ci]
+6.0 -11.1 28 +2 +2 1005.2 1002.2
06 19.07 ЮЗ 7 10 км 5/0
[Ci]
+4.0 -11.1 32 -1 -1 1005.2 1002.2
09 19.07 ЮЗ 7 10 км 5/0
[Ci]
+4.0 -11.1 32 -1 -1 1005.2 1002.2
12 19.07 В 3 10 км 4/0
[Cs]
+3.3 -6.5 49 0 0 1009.8 1006.8 -2.0 +7.1

 

Местоположение метеостанции Esperanza Base (Антарктида): широта -63.40 долгота -56.98 высота над уровнем моря 24 м.

В архиве по умолчанию представлена погода в Esperanza Base за последнюю неделю. Архивные данные за месяц целиком и за предыдущие месяцы, начиная с января 2011 года, Вы можете получить, выбрав интересующий диапазон дат из раскрывающегося списка и нажав кнопку "Ввод!".


*Определитесь, кто Вы:
робот инопланетянин человек

Внимание! Время в таблицах - всемирное. Для получения местного времени необходимо прибавить поправку, которая в Esperanza Base равна 0 ч.

Смотрите также архив погоды в соседних городах и на ближайших метеорологических станциях:

Погода в Bernardo o`Higgins (Антарктида) (47 км)
Погода в Marambio Base (Антарктида) (93 км)
Погода в Carlini Base (Антарктида) (155 км)
Погода в King Sejong (Антарктида) (160 км)
Погода в Dinamet-Uruguay (Антарктида) (165 км)
Погода в Bellingshausen (Антарктида) (166 км)
Погода в Great Wall (Антарктида) (166 км)
Погода в Captain Arturo Prat Base (Антарктида) (169 км)
Погода в Frei Chi-Base (Антарктида) (170 км)
Погода в Juan Carlos Island (Антарктида) (191 км)

Пояснения к столбцам:

Ветер - указаны скорость ветра в м/с - средняя за 10 мин, порывы в срок и между сроками (в фигурных скобках) и направление, откуда дует ветер: С - северный, СВ - северо-восточный, В - восточный, ЮВ - юго-восточный, Ю - южный, ЮЗ - юго-западный, З - западный, СЗ - северо-западный.
Видимость - горизонтальная дальность видимости в метрах или километрах. При видимости от 1 до 10 км при отсутствии осадков обычно наблюдается дымка, при ухудшении видимости до 1 км и менее - туман. В сухую погоду видимость может ухудшаться дымом, пылью или мглою.
Явления - указаны атмосферные явления, наблюдавшиеся в срок или в последний час перед сроком; фигурными скобками обозначены явления, наблюдавшиеся между сроками (за 1-3 часа до срока); квадратными скобками обозначены град или гололедные отложения с указанием их диаметра в мм.
Облачность - указаны через наклонную черту общая и нижняя облачность в баллах и высота нижней границы облаков в метрах; квадратными скобками обозначены формы облаков: Ci - перистые, Cs - перисто-слоистые, Cc - перисто-кучевые, Ac - высококучевые, As - высокослоистые, Sc - слоисто-кучевые, Ns - слоисто-дождевые, Cu - кучевые, Cb - кучево-дождевые. Подробнее классификацию облаков см. в Атласе облаков (PDF).
T - Температура воздуха - температура, измеренная на высоте 2 м над землей.
Td - Температура точки росы - температура, при понижении до которой содержащийся в воздухе водяной пар достигнет насыщения.
f - Относительная влажность воздуха - влажноcть воздуха, измеренная на высоте 2 м над землей.
Te - Эффективная температура - температура, которую ощущает одетый по сезону человек в тени. Характеристика душности погоды. При расчете учитывается влияние влажности воздуха и скорости ветра на теплоощущения человека.
Tes - Эффективная температура на солнце - температура, которую ощущает человек, с поправкой на солнечный нагрев. Характеристика знойности погоды. Зависит от высоты солнца над горизонтом, облачности и скорости ветра. Ночью, в пасмурную погоду, а также при ветре 12 м/с и более поправка равна нулю.
P - Атмосферное давление - приведенное к уровню моря атмосферное давление.
Po - Атмосферное давление - измеренное на уровне метеостанции атмосферное давление.
Tmin - Минимальная температура - минимум температуры воздуха на высоте 2 м над землей.
Tmax - Максимальная температура - максимум температуры воздуха на высоте 2 м над землей.
R - Количество осадков - Количество выпавших осадков за период времени, мм. При наведении курсора мыши на число - период времени, за который выпало указанное количество осадков.
R24 - Количество осадков - Количество выпавших осадков за 24 часа, мм.
S - Снежный покров - Высота снежного покрова, см. При наведении курсора мыши на число - состояние снежного покрова и степень покрытия местности в баллах.